Regional Weather Roundup
Issued by NWS

Home | Current Version | Previous Version | Text Only | Print | Product List | Glossary Off
Versions: 1 2 3 4 5 6 7 8 9 10 11 12 13 14 15 16 17 18 19 20 21 22 23 24 25 26 27 28 29 30 31 32 33 34 35 36 37 38 39 40 41 42 43 44 45 46 47 48 49 50

000
ASUS43 KMPX 172201
RWRMN
WEATHER ROUNDUP FOR MINNESOTA
NATIONAL WEATHER SERVICE TWIN CITIES/CHANHASSEN MN
400 PM CST TUE JAN 17 2017


NOTE: "FAIR" INDICATES FEW OR NO CLOUDS BELOW 12,000 FEET WITH NO
SIGNIFICANT WEATHER AND/OR OBSTRUCTIONS TO VISIBILITY. N/A MEANS
CURRENT SKY AND/OR WEATHER CONDITIONS ARE NOT AVAILABLE.

MNZ060>063-068>070-172300-
   Twin Cities Metro

CITY           SKY/WX    TMP DP  RH WIND       PRES   REMARKS
TWIN CITIES    CLOUDY    35  30  82 W6        29.98S WCI  30
ST PAUL        CLOUDY    34  32  92 NW12      29.99S WCI  25
CRYSTAL        CLOUDY    34  29  82 W6        29.97S WCI  29
BLAINE         CLOUDY    36  34  93 W7        29.97S
LAKEVILLE      CLOUDY    32  32 100 W5        29.98S FOG     WCI  27
EDEN PRAIRIE   CLOUDY    34  30  85 W9        29.98R WCI  27
SOUTH ST PAUL  CLOUDY    35  32  90 NW8       29.98R WCI  28
LAKE ELMO      CLOUDY    34  32  93 W6        29.98S WCI  29
$$
MNZ001>005-007-008-013>017-022>024-027-028-172300-
   Northwest Minnesota

CITY           SKY/WX    TMP DP  RH WIND       PRES   REMARKS
BEMIDJI        CLOUDY    33  21  60 S5        29.85S WCI  29
HALLOCK        CLOUDY    19  16  86 S20       29.75F WCI   4
ROSEAU         CLOUDY    25  19  80 MISG      29.77F
WARROAD        CLOUDY    28  21  74 SW12      29.78F WCI  18
THIEF RVR FALL CLOUDY    23  18  81 S16       29.83F WCI  10
CROOKSTON      CLOUDY    19  16  86 S16       29.85S WCI   5
FOSSTON        CLOUDY    21  16  79 S15       29.86S WCI   8
DETROIT LAKES  CLOUDY    25  19  80 S7        29.90F WCI  17
MOORHEAD       CLOUDY    19  14  79 S15       29.90F WCI   5
PARK RAPIDS    CLOUDY    24  15  68 S8        29.88S WCI  15
MAHNOMEN       FAIR      24  19  80 S14       29.87F WCI  11
$$
MNZ006-009>011-018-025>026-172300-
   North Central Minnesota

CITY           SKY/WX    TMP DP  RH WIND       PRES   REMARKS
BAUDETTE       CLOUDY    27  16  63 S7        29.79S WCI  19
FLAG ISLAND    CLOUDY    16  10  79 S10       29.76F WCI   3
INTL FALLS     CLOUDY    31  16  54 VRB7      29.81S WCI  24
WASKISH        CLOUDY    19  14  79 W5        29.83F WCI  13
BIG FORK       CLEAR     30  19  64 S9        29.85S WCI  22
LONGVILLE      CLEAR     36  18  48 S6        29.88S
GRAND RAPIDS   CLEAR     34  17  50 S6        29.89S WCI  29
CRANE LAKE     CLEAR     32  19  59 CALM      29.85F
ORR            CLEAR     34  16  47 CALM      29.81F
COOK           CLEAR     34  18  51 S6        29.84F WCI  29
WALKER         FAIR      32  19  59 S7        29.87S WCI  25
$$
MNZ012-019>021-037-172300-
   Northeast Minnesota

CITY           SKY/WX    TMP DP  RH WIND       PRES   REMARKS
DULUTH         CLEAR     35  25  66 W5        29.89S WCI  31
ELY            CLEAR     32  19  59 S7        29.85F WCI  26
HIBBING        CLOUDY    34  14  43 S5        29.86F WCI  30
EVELETH        CLOUDY    34  15  45 S5        29.88F WCI  30
DULUTH HARBOR  CLEAR     34  28  80 CALM      29.94S
TWO HARBORS    CLEAR     36  28  75 SW6       29.89S
SILVER BAY     CLEAR     34  30  86 CALM      29.89R
GRAND MARAIS     N/A     33  29  85 SW8       29.92S WCI  26
G MARAIS ARPRT CLOUDY    32  23  69 S5        29.87S WCI  27
$$
MNZ029>031-032-039>041-046>048-054>057-064-172300-
   West Central Minnesota

CITY           SKY/WX    TMP DP  RH WIND       PRES   REMARKS
FERGUS FALLS   CLOUDY    18  14  86 S9        29.98S WCI   6
WHEATON        CLOUDY    28  25  86 SE7       29.96F WCI  21
MORRIS         CLOUDY    23  18  80 S7        29.95R WCI  15
ALEXANDRIA     CLOUDY    22  15  75 SW7       29.94S WCI  13
ELBOW LAKE     FAIR      19  17  94 S7        29.95S FOG     WCI   9
WADENA         CLOUDY    25  18  74 W7        29.92R WCI  17
GLENWOOD       CLOUDY    23  16  74 SW8       29.95S WCI  14
APPLETON       CLOUDY    23  16  74 S3        29.97F
ORTONVILLE     CLOUDY    25  18  74 CALM      29.95S
MADISON        CLOUDY    28  21  74 SW6       29.97S WCI  22
WILLMAR        FAIR      21  19  93 CALM      29.99R
$$
MNZ033>034-036-042>043-049>051-058-059-172300-
   Central Minnesota

CITY           SKY/WX    TMP DP  RH WIND       PRES   REMARKS
ST CLOUD       CLOUDY    29  28  96 SW6       29.96F WCI  23
SAUK CENTRE    FAIR      25  18  77 S5        29.95R WCI  19
PAYNESVILLE    CLEAR     28  26  96 W3        29.97S
AITKIN         CLEAR     36  12  38 SW6       29.90S
PINE RIVER     CLEAR     30  18  59 SW7       29.95R WCI  23
BRAINERD       CLEAR     30  16  56 S8        29.92S WCI  22
STAPLES        CLOUDY    28  16  59 SW5       29.93R WCI  23
LONG PRAIRIE   FAIR      27  18  69 S5        29.94S WCI  21
LITTLE FALLS   CLEAR     30  19  64 S6        29.95S WCI  24
LITCHFIELD     FOG       28  28 100 SW5       29.98S VSB 3/4 WCI  23
BUFFALO        CLOUDY    33  30  90 SW3       29.99S
MAPLE LAKE     CLOUDY    32  31  95 SW6       29.98S WCI  27
HUTCHINSON     CLOUDY    29  28  95 W6        29.99S FOG     WCI  23
$$
MNZ037-044-045-052-053-172300-
   East Central Minnesota

CITY           SKY/WX    TMP DP  RH WIND       PRES   REMARKS
PRINCETON      CLEAR     34  28  80 SW5       29.97S WCI  30
MORA           CLEAR     32  28  86 SW7       29.97S WCI  26
CAMBRIDGE      CLOUDY    36  28  75 W7        29.95R
RUSH CITY      CLEAR     34  28  80 SW6       29.96R WCI  29
MOOSE LAKE     CLEAR     39  27  60 SW3       29.89F
HINCKLEY       FAIR      36  27  69 SW5       29.94R
CLOQUET        CLEAR     39  23  52 SW5       29.90S
MCGREGOR       CLEAR     34  19  55 SW6       29.91F WCI  29
$$
MNZ071>073-080-081-089-090-097-098-172300-
   Southwest Minnesota

CITY           SKY/WX    TMP DP  RH WIND       PRES   REMARKS
MONTEVIDEO     CLOUDY    27  18  69 SW5       29.99F WCI  21
GRANITE FALLS  CLOUDY    26  20  77 S3        30.00S
CANBY            N/A     29  22  76 SW6       29.97F WCI  23
MARSHALL       CLEAR     28  23  81 W8        29.99S WCI  20
REDWOOD FALLS  CLEAR     28  20  71 W3        29.99S
OLIVIA         CLEAR     28  23  80 SW7       29.98F WCI  21
PIPESTONE      SUNNY     30  25  80 SW8       29.97S WCI  23
WINDOM         CLEAR     32  28  86 SW9       29.98S WCI  24
WORTHINGTON    SUNNY     30  26  85 W13       30.00R WCI  20
JACKSON        CLEAR     32  28  86 W6        30.00R WCI  26
TRACY          CLEAR     31  26  82 SW9       29.98S WCI  23
SLAYTON        SUNNY     28  25  88 SW13      29.98S WCI  18
$$
MNZ065>067-074>077-082>085-091>093-172300-
   South Central Minnesota

CITY           SKY/WX    TMP DP  RH WIND       PRES   REMARKS
MANKATO        PTCLDY    31  29  92 W5        30.01R FOG     WCI  26
NEW ULM        CLEAR     28  27  93 W3        30.00S
ST JAMES       CLOUDY    30  30 100 SW5       30.02R FOG     WCI  25
FAIRMONT       FOG       32  31  96 W9        30.01S VSB 1/2 WCI  24
GLENCOE        CLOUDY    32  32  99 SW3       29.99R FOG
FARIBAULT      FOG       34  32  93 W3        29.99R VSB 1/2
OWATONNA       LGT SNOW  32  30  93 W7        29.99R VSB 3/4 WCI  26
WASECA         FOG       32  32 100 W7        30.01R VSB 1   WCI  26
ALBERT LEA     FOG       30  30 100 W5        29.99R VSB 1/2 WCI  25
$$
MNZ078>079-086>088-094>096-172300-
   Southeast Minnesota

CITY           SKY/WX    TMP DP  RH WIND       PRES   REMARKS
ROCHESTER      FOG       32  32 100 NW12      29.96R VSB 3/4 WCI  23
RED WING       PTCLDY    36  30  80 NW6       29.97R HAZE
STANTON        CLOUDY    34  32  91 W7        29.98R FOG     WCI  28
DODGE CENTER   CLOUDY    32  30  93 CALM      29.97R FOG
WINONA         CLOUDY    34  34 100 NW7       29.96R FOG     WCI  28
AUSTIN         FOG       34  30  86 NW8       29.98R VSB 1   WCI  27
PRESTON        CLOUDY    32  31  96 NW13      29.95R FOG     WCI  22
$$
ABBREVIATIONS USED IN REMARKS
   TC - TEMPERATURES IN CELSIUS
  WCI - WIND CHILL INDEX
   HX - HEAT INDEX
  VSB - VISIBILITY
$$




USA.gov is the U.S. government's official web portal to all federal, state and local government web resources and services.